TimeCST,TemperatureF,Dew PointF,Humidity,Sea Level PressureIn,VisibilityMPH,Wind Direction,Wind SpeedMPH,Gust SpeedMPH,PrecipitationIn,Events,Conditions,WindDirDegrees,DateUTC
12:53 AM,30.9,28.0,89,30.41,10.0,NW,3.5,-,N/A,,Clear,310,2013-01-04 06:53:00
1:53 AM,30.9,27.0,85,30.40,10.0,NW,4.6,-,N/A,,Clear,320,2013-01-04 07:53:00
2:53 AM,32.0,25.0,75,30.40,10.0,NNW,3.5,-,N/A,,Clear,330,2013-01-04 08:53:00
3:53 AM,32.0,26.1,79,30.39,10.0,NW,3.5,-,N/A,,Clear,310,2013-01-04 09:53:00
4:53 AM,32.0,26.1,79,30.40,10.0,Calm,Calm,-,N/A,,Clear,0,2013-01-04 10:53:00
7:53 AM,33.1,27.0,78,30.46,10.0,NW,4.6,-,N/A,,Clear,310,2013-01-04 13:53:00
8:53 AM,39.0,28.0,65,30.48,10.0,North,4.6,-,N/A,,Clear,360,2013-01-04 14:53:00
9:53 AM,45.0,27.0,49,30.48,10.0,NE,3.5,-,N/A,,Clear,50,2013-01-04 15:53:00
10:53 AM,50.0,25.0,38,30.47,10.0,NE,4.6,-,N/A,,Clear,50,2013-01-04 16:53:00
11:53 AM,53.1,27.0,37,30.42,10.0,Variable,3.5,-,N/A,,Clear,0,2013-01-04 17:53:00
12:53 PM,55.0,26.1,33,30.40,10.0,North,5.8,-,N/A,,Clear,10,2013-01-04 18:53:00
1:53 PM,57.0,25.0,29,30.36,10.0,North,5.8,-,N/A,,Clear,360,2013-01-04 19:53:00
2:53 PM,57.0,24.1,28,30.37,10.0,North,6.9,-,N/A,,Clear,350,2013-01-04 20:53:00
3:53 PM,57.0,25.0,29,30.36,10.0,North,6.9,-,N/A,,Clear,10,2013-01-04 21:53:00
4:53 PM,55.0,26.1,33,30.37,10.0,North,4.6,-,N/A,,Clear,360,2013-01-04 22:53:00
5:53 PM,46.9,32.0,56,30.39,10.0,Calm,Calm,-,N/A,,Clear,0,2013-01-04 23:53:00
6:53 PM,43.0,34.0,71,30.41,10.0,WNW,3.5,-,N/A,,Clear,290,2013-01-05 00:53:00
7:53 PM,42.1,35.1,76,30.41,10.0,Calm,Calm,-,N/A,,Clear,0,2013-01-05 01:53:00
8:53 PM,41.0,36.0,82,30.41,10.0,Calm,Calm,-,N/A,,Mostly Cloudy,0,2013-01-05 02:53:00
9:53 PM,43.0,37.9,82,30.41,10.0,Calm,Calm,-,N/A,,Overcast,0,2013-01-05 03:53:00
10:53 PM,41.0,36.0,82,30.39,10.0,Calm,Calm,-,N/A,,Scattered Clouds,0,2013-01-05 04:53:00
11:53 PM,39.0,35.1,86,30.38,10.0,Calm,Calm,-,N/A,,Clear,0,2013-01-05 05:53:00